Volver al catálogo

ONEWEB-0061

ActivoComunicacionesPO
NORAD 45428·PAYLOAD·🇬🇧 United Kingdom

Lanzado Mar 21, 2020 desde Baikonur Cosmodrome

Loading…

Próximos Pases (próximas 24 horas)

TLE

ActualizadoSource: CelesTrak SupGP

Época: Sep 14, 2026, 20:07 UTC

1 45428C 20020E   26257.83837222  .00000130  00000+0  36778-3 0  2578
2 45428  87.8981   3.2368 0001817 100.5068 358.9609 13.11420535    11

Sigue ONEWEB-0061 en tiempo real con AllMySat

Download on the App Store